Find Local Weather

World > North America > United States > Florida

Ocala, Florida Regional Weather

Lat: 29.19N, Lon: 82.13W
Wx Zone: FLZ040
Feedback
Expires:201812151100;;825682
ASUS42 KTBW 151017
RWRFL 
FLORIDA REGIONAL WEATHER ROUNDUP
NATIONAL WEATHER SERVICE TAMPA BAY RUSKIN FL
500 AM EST SAT DEC 15 2018

NOTE: "FAIR" INDICATES FEW OR NO CLOUDS BELOW 12,000 FEET WITH NO
SIGNIFICANT WEATHER AND/OR OBSTRUCTIONS TO VISIBILITY.


FLZ040-043>046-052-053-057-058-063-144-151100-
INTERIOR CENTRAL FLORIDA
  
CITY           SKY/WX    TMP DP  RH WIND       PRES   REMARKS
OCALA          LGT RAIN  61  60  97 S7        30.00R                  
LEESBURG       LGT RAIN  61  60  97 CALM      30.00R                  
SANFORD        CLOUDY    63  62  97 CALM      29.99F                  
ORLANDO EXEC   CLOUDY    63  61  93 CALM      30.00R                  
ORLANDO INTL   CLOUDY    62  61  96 CALM      30.01R                  
KISSIMMEE      CLOUDY    64  62  93 CALM      30.03R                  
WINTER HAVEN   CLOUDY    64  62  93 CALM      30.02S                  
LAKELAND       CLOUDY    63  61  94 CALM      30.01                   
BARTOW         CLOUDY    63 N/A N/A CALM      30.00S                  
SEBRING        CLOUDY    66  64  91 NW6       30.01R                  
OKEECHOBEE     LGT RAIN  70  68  94 W9        30.00S                  

$$

SKY/WX - Weather  TMP - Temperature  DP - Dew Point  RH - Relative Humidity
WIND - Wind Direction/Speed PRES - Barometric Pressure